Station 46050 (LLNR 641) - STONEWALL BANK - 20NM West of Newport, OR Image indicating link to RSS feed of recent meteorological observations for station 46050


Conditions at 46050 as of
(7:30 pm PDT on 05/23/2024)
0230 GMT on 05/24/2024:
     

Click on the graph icon in the table below to see a time series plot of the last five days of that observation.

5-day plot - Wind Direction Wind Direction (WDIR):NNW ( 330 deg true )
5-day plot - Wind Speed Wind Speed (WSPD): 11.7 kts
5-day plot - Wind Gust Wind Gust (GST): 13.6 kts
5-day plot - Atmospheric Pressure Atmospheric Pressure (PRES):30.07 in
5-day plot - Air Temperature Air Temperature (ATMP): 54.7 °F
5-day plot - Water Temperature Water Temperature (WTMP): 56.1 °F
5-day plot - Wind Speed at 10 Meters Wind Speed at 10 meters (WSPD10M): 11.7 kts
5-day plot - Wind Speed at 20 Meters Wind Speed at 20 meters (WSPD20M): 13.6 kts
5-day plot -  Wind Speed, Wind Gust and Atmospheric Pressure Combined plot of Wind Speed, Gust, and Air Pressure
Supplemental Measurements
Highest 1-minute Wind Speed
Time (PDT)5-day plot - 1-Minute Wind Speed WSPD 5-day plot - 1-Minute Wind Direction WDIR
7:27 pm 11.7 kts-
Previous observations
TIME
(PDT)
5-day plot - Wind Direction
WDIR
 
5-day plot - Wind Speed
WSPD
kts
5-day plot - Wind Gust
GST
kts
5-day plot - Wave Height
WVHT
ft
5-day plot - Dominant Wave Period
DPD
sec
5-day plot - Average Wave Period
APD
sec
5-day plot - Mean Wave Direction
MWD
 
5-day plot - Atmospheric Pressure
PRES
in
5-day plot - Pressure Tendency
PTDY
in
5-day plot - Air Temperature
ATMP
°F
5-day plot - Water Temperature
WTMP
°F
5-day plot - Dew Point
DEWP
°F
5-day plot - Salinity
SAL
psu
5-day plot - Visibility
VIS
nmi
5-day plot - Tide (above MLLW)
TIDE
ft
2024-05-23 07:20 pmNNW 11.7 13.6 4.9 86.2NNW30.07- 54.7 56.3----
2024-05-23 07:10 pmNNW 9.7 13.6 4.9-6.2NNW30.07- 54.9 56.1----
2024-05-23 07:00 pmNNW 9.7 13.6----30.07-0.05 54.9 56.1----
2024-05-23 06:50 pmNNW 9.7 13.6 5.2 86.7NNW30.08- 54.9 56.3----
2024-05-23 06:40 pmNNW 9.7 13.6----30.08- 54.9 56.3----
2024-05-23 06:30 pmNNW 9.7 11.7----30.08- 54.9 56.1----
2024-05-23 06:20 pmNNW 9.7 13.6 5.6 86.6 NW30.08- 54.9 55.9----
2024-05-23 06:10 pmNNW 9.7 13.6----30.08- 54.9 56.1----
2024-05-23 06:00 pmNNW 9.7 13.6----30.09-0.05 54.9 56.8----
2024-05-23 05:50 pmNNW 11.7 15.5 5.6 86.8 NW30.09- 54.9 57.4----
2024-05-23 05:40 pm NW 9.7 13.6----30.09- 54.9 57.7----
2024-05-23 05:30 pm NW 11.7 13.6----30.09- 54.9 57.9----
2024-05-23 05:20 pm NW 9.7 13.6 4.9 96.7 NW30.09- 54.9 56.8----
2024-05-23 05:10 pm NW 9.7 13.6 4.9-6.7 NW30.09- 54.7 56.7----
2024-05-23 05:00 pm NW 9.7 13.6----30.10-0.04 54.9 56.7----
2024-05-23 04:50 pmNNW 9.7 13.6 5.6 97.0NNW30.10- 54.7 56.7----
2024-05-23 04:40 pm NW 9.7 11.7----30.11- 54.7 56.1----
2024-05-23 04:20 pmNNW 7.8 11.7 4.9 96.8 NW30.11- 54.7 55.6----
2024-05-23 04:10 pm NW 7.8 11.7----30.12- 54.5 55.6----
2024-05-23 04:00 pmNNW 7.8 9.7----30.12-0.03 54.7 55.8----
2024-05-23 03:50 pmNNW 7.8 9.7 5.2 96.8NNW30.12- 54.5 55.8----
2024-05-23 03:40 pmNNW 5.8 9.7----30.13- 54.7 55.9----
2024-05-23 03:30 pmNNW 5.8 9.7----30.13- 54.5 55.9----
2024-05-23 03:20 pmNNW 5.8 7.8 5.2 86.8NNW30.13- 54.5 56.3----
2024-05-23 03:10 pmNNW 5.8 9.7 5.2-6.8NNW30.13- 54.5 56.3----
2024-05-23 03:00 pm NW 7.8 11.7----30.13-0.03 54.3 55.9----
2024-05-23 02:50 pm NW 7.8 9.7 5.6 96.9NNW30.14- 54.5 55.9----
2024-05-23 02:40 pm NW 7.8 9.7----30.14- 54.3 55.4----
2024-05-23 02:30 pm NW 5.8 9.7----30.14- 54.3 55.4----
2024-05-23 02:20 pm NW 5.8 7.8 5.6 96.7NNW30.14- 54.5 55.4----
2024-05-23 02:10 pm NW 3.9 7.8 5.6-6.7NNW30.14- 54.5 55.6----
2024-05-23 02:00 pm NW 3.9 5.8----30.14-0.02 54.5 55.4----
2024-05-23 01:50 pmNNW 3.9 5.8 5.6 96.6NNW30.14- 54.5 55.4----
2024-05-23 01:40 pm NW 3.9 5.8 5.6-6.6NNW30.14- 54.5 55.8----
2024-05-23 01:30 pmNNW 3.9 5.8----30.15- 54.3 56.3----
2024-05-23 01:20 pm N 3.9 5.8 5.2 96.5NNW30.15- 54.1 56.7----
2024-05-23 01:10 pm N 3.9 5.8 5.2-6.5NNW30.15- 54.1 56.3----
2024-05-23 01:00 pmNNE 3.9 5.8----30.15-0.02 54.1 55.4----
2024-05-23 12:50 pmNNE 3.9 5.8 5.6 96.5NNW30.15- 54.1 55.4----
2024-05-23 12:40 pm NE 3.9 5.8----30.15- 54.1 55.6----
2024-05-23 12:30 pmNNE 3.9 5.8----30.16- 54.0 55.6----
2024-05-23 12:20 pmNNE 3.9 5.8 5.6 96.5NNW30.16- 54.0 55.8----
2024-05-23 12:10 pm NE 3.9 5.8 5.6-6.5NNW30.16- 54.0 55.6----
2024-05-23 12:00 pmNNE 3.9 5.8----30.16-0.01 53.8 55.2----
2024-05-23 11:50 amNNE 5.8 7.8 5.6 96.7NNW30.16- 53.8 55.4----
2024-05-23 11:40 amNNE 5.8 7.8 5.6-6.7NNW30.16- 54.0 55.4----
2024-05-23 11:30 amNNE 3.9 5.8----30.16- 54.0 55.2----
2024-05-23 11:20 am N 5.8 7.8 6.6 96.7 NW30.16- 54.0 55.2----
2024-05-23 11:10 am N 3.9 7.8----30.16- 54.0 55.2----
2024-05-23 11:00 am N 3.9 7.8----30.16-0.01 54.0 55.2----
2024-05-23 10:50 am N 3.9 5.8 6.6 96.7 NW30.17- 54.1 55.2----
2024-05-23 10:40 amNNW 3.9 7.8----30.17- 54.1 55.4----
2024-05-23 10:30 amNNW 3.9 5.8----30.17- 54.1 55.2----
2024-05-23 10:20 amNNW 3.9 5.8 6.6 106.6 NW30.17- 54.1 55.0----
2024-05-23 10:10 am NW 3.9 5.8 6.6-6.6 NW30.17- 54.0 55.0----
2024-05-23 10:00 amNNW 3.9 5.8----30.17+0.00 54.0 55.0----
2024-05-23 09:50 am NW 3.9 7.8 6.6 86.5 NW30.17- 54.0 55.0----
2024-05-23 09:40 am NW 3.9 5.8----30.17- 54.0 54.9----
2024-05-23 09:30 am NW 3.9 7.8----30.17- 54.0 54.9----
2024-05-23 09:20 am NW 3.9 7.8 6.9 96.4 NW30.17- 54.0 54.9----
2024-05-23 09:10 am NW 3.9 7.8----30.18- 54.0 54.9----
2024-05-23 09:00 am NW 3.9 7.8----30.17+0.00 54.1 54.7----
2024-05-23 08:50 amWNW 5.8 7.8 7.2 96.7NNW30.17- 54.0 54.7----
2024-05-23 08:40 amWNW 5.8 7.8----30.18- 54.0 54.7----
2024-05-23 08:30 amWNW 5.8 7.8----30.17- 54.0 54.7----
2024-05-23 08:20 amWNW 5.8 7.8 7.9 96.7NNW30.18- 54.0 54.7----
2024-05-23 08:10 amWNW 5.8 9.7 7.9-6.7NNW30.18- 53.8 54.7----
2024-05-23 08:00 amWNW 5.8 9.7----30.18+0.01 53.8 54.7----
2024-05-23 07:50 amWNW 5.8 9.7 8.2 96.9NNW30.18- 53.8 54.7----
2024-05-23 07:40 amWNW 5.8 9.7----30.18- 53.8 54.7----
2024-05-23 07:30 amWNW 5.8 9.7----30.18- 53.8 54.7----
2024-05-23 07:20 amWNW 5.8 7.8 8.2 106.7 NW30.18- 53.8 54.7----
2024-05-23 07:10 amWNW 5.8 7.8 8.2-6.7 NW30.18- 53.6 54.5----
2024-05-23 07:00 amWNW 5.8 7.8----30.17+0.00 53.4 54.5----
2024-05-23 06:50 amWNW 5.8 9.7 9.2 96.9 NW30.17- 53.4 54.3----
2024-05-23 06:40 amWNW 5.8 9.7----30.17- 53.2 54.3----
2024-05-23 06:30 amWNW 5.8 9.7----30.17- 53.2 54.3----
2024-05-23 06:20 amWNW 7.8 9.7 9.5 97.1NNW30.17- 53.4 54.3----
2024-05-23 06:10 amWNW 5.8 9.7 9.5-7.1NNW30.17- 53.2 54.3----
2024-05-23 06:00 amWNW 5.8 9.7----30.17+0.00 53.4 54.3----
2024-05-23 05:50 amWNW 5.8 9.7 9.5 107.0NNW30.17- 53.2 54.3----
2024-05-23 05:40 amWNW 5.8 11.7 9.5-7.0NNW30.17- 53.4 54.3----
2024-05-23 05:30 amWNW 7.8 9.7----30.17- 53.2 54.3----
2024-05-23 05:20 amWNW 7.8 11.7 9.2 97.3 NW30.17- 53.4-----
2024-05-23 05:10 amWNW 7.8 11.7----30.17- 53.2 54.5----
2024-05-23 05:00 amWNW 7.8 11.7----30.16+0.00 53.4 54.5----
2024-05-23 04:50 amWNW 7.8 11.7 9.5 107.2NNW30.17- 53.4 54.5----
2024-05-23 04:40 amWNW 7.8 11.7----30.17- 53.4 54.5----
2024-05-23 04:30 amWNW 7.8 11.7----30.17- 53.4 54.5----
2024-05-23 04:20 amWNW 9.7 11.7 8.9 106.9NNW30.17- 53.4 54.3----
2024-05-23 04:10 amWNW 7.8 11.7----30.17- 53.6 54.3----
2024-05-23 04:00 amWNW 7.8 11.7----30.17+0.00 53.6 54.3----
2024-05-23 03:50 amWNW 7.8 11.7 10.2 97.2NNW30.17- 53.8 54.3----
2024-05-23 03:40 amWNW 9.7 13.6----30.17- 53.6 54.3----
2024-05-23 03:30 amWNW 9.7 11.7----30.17- 53.6 54.3----
2024-05-23 03:20 amWNW 9.7 11.7 9.8 107.2NNW30.17- 53.6 54.3----
2024-05-23 03:10 amWNW 9.7 13.6 9.8-7.2NNW30.17- 53.6 54.3----
2024-05-23 03:00 am W 9.7 13.6----30.17+0.00 53.6 54.3----
2024-05-23 02:50 amWNW 7.8 11.7 9.8 97.2NNW30.17- 53.6 54.3----
2024-05-23 02:40 amWNW 7.8 11.7 9.8-7.2NNW30.17- 53.8 54.3----
2024-05-23 02:30 amWNW 7.8 11.7----30.17- 53.8 54.5----
2024-05-23 02:20 amWNW 7.8 11.7 9.5 107.4NNW30.17- 53.8 54.5----
2024-05-23 02:10 amWNW 7.8 11.7----30.17- 53.8 54.5----
2024-05-23 02:00 am NW 7.8 11.7----30.17-0.01 53.8 54.5----
2024-05-23 01:50 amWNW 7.8 11.7 10.2 107.4 NW30.17- 53.8 54.5----
2024-05-23 01:40 amWNW 7.8 11.7----30.17- 53.8 54.5----
2024-05-23 01:30 amWNW 7.8 11.7----30.17- 53.8 54.5----
2024-05-23 01:20 amWNW 9.7 13.6 10.2 107.5NNW30.17- 53.8 54.5----
2024-05-23 01:10 amWNW 7.8 11.7----30.17- 53.8 54.5----
2024-05-23 01:00 amWNW 7.8 11.7----30.17+0.00 54.0 54.5----
2024-05-23 12:50 amWNW 7.8 9.7 9.2 107.3NNW30.17- 53.8 54.5----
2024-05-23 12:40 amWNW 7.8 11.7----30.17- 53.8 54.5----
2024-05-23 12:30 amWNW 7.8 11.7----30.17- 53.8 54.5----
2024-05-23 12:20 amWNW 7.8 11.7 9.2 107.3NNW30.17- 53.8-----
2024-05-23 12:10 amWNW 7.8 11.7----30.17- 53.8 54.5----
2024-05-23 12:00 amWNW 7.8 11.7----30.17+0.01 53.8 54.5----
2024-05-22 11:50 pm NW 9.7 13.6 9.5 107.4NNW30.17- 53.8 54.5----
2024-05-22 11:40 pm NW 9.7 13.6----30.17- 53.8 54.5----
2024-05-22 11:30 pm NW 7.8 11.7----30.18- 54.0 54.5----
2024-05-22 11:20 pmWNW 7.8 11.7 10.2 107.9NNW30.18- 54.0 54.3----
2024-05-22 11:10 pmWNW 7.8 11.7----30.18- 53.8 54.3----
2024-05-22 11:00 pmWNW 7.8 11.7----30.18+0.02 53.8 54.1----
2024-05-22 10:50 pmWNW 7.8 13.6 9.5 117.7NNW30.18- 53.4 54.3----
2024-05-22 10:40 pm NW 11.7 17.5----30.18- 53.6 54.5----
2024-05-22 10:30 pm NW 11.7 15.5----30.18- 53.8 54.5----
2024-05-22 10:20 pmWNW 9.7 13.6 10.2 107.9NNW30.18- 54.0 54.5----
2024-05-22 10:10 pmWNW 11.7 13.6 10.2-7.9NNW30.18- 54.0 54.5----
2024-05-22 10:00 pmWNW 9.7 15.5----30.18+0.02 54.0 54.5----
2024-05-22 09:50 pmWNW 9.7 15.5 8.9 117.4NNW30.17- 54.0 54.5----
2024-05-22 09:40 pmWNW 11.7 13.6----30.17- 54.0 54.5----
2024-05-22 09:30 pmWNW 11.7 15.5----30.17- 54.0 54.5----
2024-05-22 09:20 pmWNW 11.7 15.5 9.8 117.6NNW30.17- 54.0 54.5----
2024-05-22 09:10 pmWNW 9.7 13.6----30.16- 54.0 54.5----
2024-05-22 09:00 pmWNW 9.7 13.6----30.16+0.01 53.8 54.7----
2024-05-22 08:50 pmWNW 9.7 15.5 10.5 117.9NNW30.16- 54.0 54.5----
2024-05-22 08:40 pmWNW 11.7 15.5----30.16- 53.8 54.5----
2024-05-22 08:30 pmWNW 11.7 15.5----30.16- 53.8 54.7----
2024-05-22 08:20 pmWNW 11.7 15.5 10.2 107.6 NW30.16- 53.8 54.7----
2024-05-22 08:10 pmWNW 11.7 15.5 10.2-7.6 NW30.16- 53.8 54.7----
2024-05-22 08:00 pmWNW 11.7 15.5----30.16+0.02 54.0 54.7----
2024-05-22 07:50 pmWNW 11.7 15.5 10.2 107.6NNW30.16- 54.0 54.7----

Detailed Wave Summary
for 46050 as of
(7:10 pm PDT on 05/23/2024)
0210 GMT on 05/24/2024:

These wave data are displayed in rounded times.

     

Click on the graph icon in the table below to see a time series plot of the last five days of that observation.

5-day plot - Significant Wave Height Significant Wave Height (WVHT): 4.9 ft
5-day plot - Swell Height Swell Height (SwH): 4.6 ft
5-day plot - Swell Period Swell Period (SwP): 8.3 sec
5-day plot - Swell Direction Swell Direction (SwD):NNW
5-day plot - Wind Wave Height Wind Wave Height (WWH): 1.6 ft
5-day plot - Wind Wave Period Wind Wave Period (WWP): 4.0 sec
5-day plot - Wind Wave Direction Wind Wave Direction (WWD): NW
5-day plot - Wave Steepness Wave Steepness (STEEPNESS): AVERAGE
5-day plot - Average Wave Period Average Wave Period (APD): 6.2 sec
Previous observations
TIME
(PDT)
5-day plot - Wave Height
WVHT
ft
5-day plot - Swell Height
SwH
ft
5-day plot - Swell Period
SwP
sec
5-day plot - Swell Direction
SwD
 
5-day plot - Wind Wave Height
WWH
ft
5-day plot - Wind Wave Period
WWP
sec
5-day plot - Wind Wave Direction
WWD
 
5-day plot - Wave Steepness
STEEPNESS
 
5-day plot - Average Wave Period
APD
sec
2024-05-23 06:40 pm 5.2 5.2 8.3NNW 1.6 4.5 NW AVERAGE 6.7
2024-05-23 06:10 pm 5.6 5.2 8.3 NW 1.6 4.5 NW AVERAGE 6.6
2024-05-23 05:40 pm 5.6 5.2 8.3 NW 1.6 4.3 WNW AVERAGE 6.8
2024-05-23 05:10 pm 4.9 4.6 9.1 NW 1.6 4.8 NW AVERAGE 6.7
2024-05-23 04:40 pm 5.6 5.6 9.1NNW 1.3 4.0 WNW AVERAGE 7.0
2024-05-23 04:10 pm 4.9 4.9 9.1 NW 1.0 3.7 NW AVERAGE 6.8
2024-05-23 03:40 pm 5.2 4.9 9.1NNW 1.3 3.4 NNW AVERAGE 6.8
2024-05-23 03:10 pm 5.2 4.9 8.3NNW 1.3 4.0 WNW AVERAGE 6.8
2024-05-23 02:40 pm 5.6 5.2 9.1NNW 1.3 3.7 WNW AVERAGE 6.9
2024-05-23 02:10 pm 5.6 5.6 9.1NNW 1.3 4.0 WNW AVERAGE 6.7
2024-05-23 01:40 pm 5.6 5.2 9.1NNW 1.3 3.8 WNW AVERAGE 6.6
2024-05-23 01:10 pm 5.2 5.2 9.1NNW 1.3 3.7 WNW AVERAGE 6.5
2024-05-23 12:40 pm 5.6 5.6 9.1NNW 1.3 3.7 NNW AVERAGE 6.5
2024-05-23 12:10 pm 5.6 5.6 9.1NNW 1.3 3.7 NW AVERAGE 6.5
2024-05-23 11:40 am 5.6 5.6 9.1NNW 1.3 3.6 N AVERAGE 6.7
2024-05-23 11:10 am 6.6 6.2 9.1 NW 1.6 3.6 NNW AVERAGE 6.7
2024-05-23 10:40 am 6.6 6.6 9.1 NW 1.3 3.6 NNW AVERAGE 6.7
2024-05-23 10:10 am 6.6 6.2 10.0 NW 1.6 3.8 NW SWELL 6.6
2024-05-23 09:40 am 6.6 6.6 8.3 NW 1.6 3.7 NNW AVERAGE 6.5
2024-05-23 09:10 am 6.9 6.6 9.1 NW 2.0 3.8 NW AVERAGE 6.4
2024-05-23 08:40 am 7.2 7.2 9.1NNW 1.6 3.7 N AVERAGE 6.7
2024-05-23 08:10 am 7.9 7.5 9.1NNW 2.0 3.7 NNW AVERAGE 6.7
2024-05-23 07:40 am 8.2 8.2 9.1NNW 1.6 3.8 NW AVERAGE 6.9
2024-05-23 07:10 am 8.2 7.9 10.0 NW 2.0 4.0 NNW AVERAGE 6.7
2024-05-23 06:40 am 9.2 8.9 9.1 NW 2.0 3.1 NNW AVERAGE 6.9
2024-05-23 06:10 am 9.5 9.2 9.1NNW 2.0 4.0 NW AVERAGE 7.1
2024-05-23 05:40 am 9.5 9.5 10.0NNW 2.0 3.8 NW AVERAGE 7.0
2024-05-23 05:10 am 9.2 9.2 9.1 NW 2.0 3.8 NW AVERAGE 7.3
2024-05-23 04:40 am 9.5 9.5 10.0NNW 2.0 3.8 NW AVERAGE 7.2
2024-05-23 04:10 am 8.9 8.5 10.0NNW 2.0 3.7 NNW AVERAGE 6.9
2024-05-23 03:40 am 10.2 9.8 9.1NNW 2.0 3.8 NNW STEEP 7.2
2024-05-23 03:10 am 9.8 9.5 10.0NNW 2.0 3.4 WNW AVERAGE 7.2
2024-05-23 02:40 am 9.8 9.5 9.1NNW 2.0 3.6 WNW STEEP 7.2
2024-05-23 02:10 am 9.5 9.5 10.0NNW 2.0 3.8 NW AVERAGE 7.4
2024-05-23 01:40 am 10.2 9.8 10.0 NW 2.0 3.8 WNW AVERAGE 7.4
2024-05-23 01:10 am 10.2 10.2 10.0NNW 2.0 3.7 NW AVERAGE 7.5
2024-05-23 12:40 am 9.2 8.9 10.0NNW 1.6 4.0 NNW AVERAGE 7.3
2024-05-23 12:10 am 9.2 9.2 10.0NNW 1.6 3.8 NW AVERAGE 7.3
2024-05-22 11:40 pm 9.5 9.2 10.0NNW 1.6 3.6 WNW AVERAGE 7.4
2024-05-22 11:10 pm 10.2 9.8 10.0NNW 1.6 3.6 NNW AVERAGE 7.9
2024-05-22 10:40 pm 9.5 9.2 10.8NNW 3.0 5.3 NW AVERAGE 7.7
2024-05-22 10:10 pm 10.2 10.2 10.0NNW 2.3 4.2 WNW AVERAGE 7.9
2024-05-22 09:40 pm 8.9 8.5 10.8NNW 3.0 5.3 NW AVERAGE 7.4
2024-05-22 09:10 pm 9.8 9.5 10.8NNW 2.3 4.5 NW AVERAGE 7.6
2024-05-22 08:40 pm 10.5 10.2 10.8NNW 3.0 5.3 NW AVERAGE 7.9
2024-05-22 08:10 pm 10.2 9.8 10.0 NW 3.0 5.3 WNW AVERAGE 7.6

Plot of wave energy versus frequency (and period)